Content
SEND FEEDBACK

Daily
Averages
Monthly
Summary
Cook Islands

ARORANGI, COOK ISLANDS


Home > Oceania > Cook Islands
Elevation: 23 feet     Latitude: 21 12S     Longitude: 159 49W

WEATHER
 
SELECT A DAY
Number of Records: 156,940;   Date Range: 9/18/97 - 7/28/14
 
SHARE

PRINT THIS DATA

[ ← Previous Day ]
WEATHER ALMANAC - JANUARY 23, 2013
[ Next Day → ]
[ °C ]   °F
Weather ElementAverageHighLow
Temperature81.4 °F86 °F (1:00 pm)78.8 °F (2:00 am)
Dewpoint75.8 °F77 °F (8:00 am)75 °F (5:00 am)
Humidity82.2 %94 % (11:00 pm)70 % (5:00 pm)
Barometer29.78 in29.83 in (11:00 pm)29.74 in (4:00 am)
Wind Speed10.2 mph15 mph (1:00 pm)
Weather ElementAverage
Visibility10.1 mi
Wind DirectionE (87.1 °)

Weather ElementTotal
Precipitation---
Cooling Degree Days17.4 (Base 65)
Growing Degree Days32.4 (Base 50)
Averaged from 31 records on January 23, 2013
WEATHER CONDITIONS BREAKOUT
WIND DIRECTION BREAKOUT
WEATHER BY HOUR - JANUARY 23, 2013
[ °C ]   °F
Local TimeTemperatureDewpointHumidityBarometerVisibilityWind DirectionWind SpeedGust SpeedPrecipitationEventsConditions
1:00 AM80.6 °F75.2 °F84 %29.80 in6.2 miEast (80°)9.2 mphPartly Cloudy
2:00 AM79.0 °F76.0 °F86 %29.78 in12.0 miEast (90°)8.1 mph
2:00 AM78.8 °F75.2 °F89 %29.77 in6.2 miEast (90°)8.1 mphScattered Clouds
3:00 AM78.8 °F75.2 °F89 %29.77 in6.2 miEast (100°)6.9 mphScattered Clouds
4:00 AM78.8 °F75.2 °F89 %29.74 in6.2 miEast (90°)8.1 mphScattered Clouds
5:00 AM79.0 °F75.0 °F84 %29.76 in12.0 miEast (80°)11.5 mphPartly Cloudy
5:00 AM78.8 °F75.2 °F89 %29.74 in6.2 miEast (80°)11.5 mphScattered Clouds
6:00 AM78.8 °F75.2 °F89 %29.77 in6.2 miEast (90°)9.2 mphScattered Clouds
7:00 AM78.8 °F75.2 °F89 %29.77 in6.2 miEast (90°)6.9 mphPartly Cloudy
8:00 AM80.0 °F76.0 °F84 %29.79 in12.0 miEast (80°)10.4 mphPartly Cloudy
8:00 AM80.6 °F77.0 °F89 %29.77 in6.2 miEast (80°)10.4 mphScattered Clouds
9:00 AM82.4 °F77.0 °F84 %29.80 in6.2 miEast (80°)8.1 mphScattered Clouds
10:00 AM82.4 °F75.2 °F79 %29.80 in6.2 miENE (70°)11.5 mphScattered Clouds
11:00 AM83.0 °F76.0 °F74 %29.80 in31.0 miENE (70°)11.5 mphPartly Cloudy
11:00 AM82.4 °F77.0 °F84 %29.77 in6.2 miENE (70°)11.5 mphScattered Clouds
12:00 PM84.2 °F77.0 °F79 %29.77 in6.2 miENE (70°)11.5 mphPartly Cloudy
1:00 PM86.0 °F77.0 °F74 %29.77 in6.2 miEast (80°)15.0 mphPartly Cloudy
2:00 PM85.0 °F77.0 °F72 %29.78 in31.0 miENE (70°)11.5 mph
2:00 PM86.0 °F77.0 °F74 %29.77 in6.2 miENE (70°)11.5 mphScattered Clouds
3:00 PM84.2 °F75.2 °F74 %29.74 in6.2 miEast (90°)11.5 mphPartly Cloudy
4:00 PM84.2 °F77.0 °F79 %29.74 in6.2 miEast (100°)9.2 mphScattered Clouds
5:00 PM84.0 °F76.0 °F70 %29.75 in31.0 miEast (100°)11.5 mphPartly Cloudy
5:00 PM84.2 °F75.2 °F74 %29.74 in6.2 miEast (100°)11.5 mphScattered Clouds
6:00 PM82.4 °F75.2 °F79 %29.74 in6.2 miEast (100°)11.5 mphScattered Clouds
7:00 PM80.6 °F75.2 °F84 %29.77 in6.2 miESE (110°)11.5 mphPartly Cloudy
8:00 PM80.0 °F75.0 °F79 %29.80 in31.0 miEast (100°)10.4 mph
8:00 PM80.6 °F75.2 °F84 %29.80 in6.2 miEast (100°)10.4 mphPartly Cloudy
9:00 PM80.6 °F75.2 °F84 %29.80 in6.2 miEast (100°)9.2 mphPartly Cloudy
10:00 PM80.6 °F75.2 °F84 %29.80 in6.2 miENE (70°)9.2 mphScattered Clouds
11:00 PM80.0 °F75.0 °F81 %29.83 in12.0 miEast (100°)9.2 mphPartly Cloudy
11:00 PM78.8 °F77.0 °F94 %29.83 in6.2 miEast (100°)9.2 mphScattered Clouds
Hourly data recorded from NCRG, located miles away from Arorangi, Cook Islands







STORIES FROM OUR PARTNERS